| time (UTC) | temp C | wind direction | speed KPH | gust KPH | rain 1hr cm | rain 24hr cm | rain mn cm | humidity % | barometer mb |
| 20260510205037 | 16 | 219 | 1.6 | 14.5 | 0.00 | 0.10 | 0.10 | 51 | 1010.9 |
| 20260510204552 | 16 | 147 | 3.2 | 14.5 | 0.00 | 0.10 | 0.10 | 51 | 1010.9 |
| 20260510204036 | 16 | 340 | 4.8 | 14.5 | 0.00 | 0.10 | 0.10 | 52 | 1011.0 |
| 20260510203537 | 15 | 153 | 1.6 | 14.5 | 0.00 | 0.10 | 0.10 | 51 | 1010.9 |
| 20260510203047 | 16 | 205 | 3.2 | 14.5 | 0.00 | 0.10 | 0.10 | 49 | 1010.8 |
| 20260510202536 | 16 | 216 | 4.8 | 16.1 | 0.00 | 0.10 | 0.10 | 47 | 1010.8 |
| 20260510202036 | 16 | 205 | 4.8 | 22.5 | 0.00 | 0.10 | 0.10 | 46 | 1010.8 |
| 20260510201544 | 16 | 107 | 6.4 | 22.5 | 0.00 | 0.10 | 0.10 | 46 | 1010.7 |
| 20260510201038 | 16 | 200 | 3.2 | 19.3 | 0.00 | 0.10 | 0.10 | 46 | 1010.8 |
| 20260510200536 | 17 | 189 | 4.8 | 19.3 | 0.00 | 0.10 | 0.10 | 43 | 1010.7 |
| 20260510200045 | 17 | 169 | 4.8 | 19.3 | 0.00 | 0.10 | 0.10 | 51 | 1010.6 |
| 20260510195539 | 17 | 184 | 6.4 | 19.3 | 0.00 | 0.10 | 0.10 | 50 | 1010.8 |
| 20260510195037 | 17 | 194 | 6.4 | 19.3 | 0.00 | 0.10 | 0.10 | 46 | 1010.6 |
| 20260510194549 | 17 | 245 | 3.2 | 16.1 | 0.00 | 0.10 | 0.10 | 52 | 1010.7 |
| 20260510194036 | 17 | 34 | 4.8 | 16.1 | 0.00 | 0.10 | 0.10 | 46 | 1010.6 |
| 20260510193536 | 17 | 279 | 4.8 | 19.3 | 0.00 | 0.10 | 0.10 | 49 | 1010.6 |
| 20260510193049 | 17 | 355 | 6.4 | 19.3 | 0.00 | 0.10 | 0.10 | 51 | 1010.6 |
| 20260510192536 | 17 | 254 | 3.2 | 17.7 | 0.00 | 0.10 | 0.10 | 51 | 1010.6 |
| 20260510192036 | 17 | 288 | 6.4 | 17.7 | 0.00 | 0.10 | 0.10 | 48 | 1010.7 |
| 20260510191550 | 17 | 218 | 3.2 | 20.9 | 0.00 | 0.10 | 0.10 | 56 | 1010.7 |
| 20260510191036 | 17 | 234 | 4.8 | 20.9 | 0.00 | 0.10 | 0.10 | 54 | 1010.7 |
| 20260510190536 | 16 | 147 | 4.8 | 20.9 | 0.00 | 0.10 | 0.10 | 56 | 1010.6 |
| 20260510190043 | 16 | 222 | 4.8 | 20.9 | 0.00 | 0.10 | 0.10 | 59 | 1010.7 |
| 20260510185537 | 16 | 226 | 6.4 | 20.9 | 0.00 | 0.10 | 0.10 | 63 | 1010.7 |
| 20260510185037 | 16 | 160 | 4.8 | 16.1 | 0.00 | 0.10 | 0.10 | 74 | 1010.8 |
| 20260510184545 | 15 | 146 | 3.2 | 16.1 | 0.00 | 0.10 | 0.10 | 79 | 1010.8 |
| 20260510184039 | 15 | 149 | 4.8 | 16.1 | 0.00 | 0.10 | 0.10 | 80 | 1010.9 |
| 20260510183537 | 14 | 0 | 0.0 | 17.7 | 0.00 | 0.10 | 0.10 | 81 | 1010.9 |
| 20260510183047 | 13 | 279 | 1.6 | 17.7 | 0.00 | 0.10 | 0.10 | 83 | 1010.9 |
| 20260510182536 | 14 | 162 | 6.4 | 16.1 | 0.00 | 0.10 | 0.10 | 82 | 1010.9 |
| 20260510182036 | 15 | 198 | 3.2 | 14.5 | 0.00 | 0.10 | 0.10 | 86 | 1011.0 |
| 20260510181552 | 13 | 216 | 4.8 | 16.1 | 0.00 | 0.10 | 0.10 | 85 | 1011.0 |
| 20260510181036 | 13 | 123 | 3.2 | 17.7 | 0.00 | 0.10 | 0.10 | 84 | 1011.0 |
| 20260510180536 | 13 | 226 | 6.4 | 20.9 | 0.00 | 0.10 | 0.10 | 85 | 1011.0 |
| 20260510180053 | 13 | 157 | 4.8 | 20.9 | 0.00 | 0.10 | 0.10 | 85 | 1011.0 |
| 20260510175536 | 13 | 153 | 8.0 | 20.9 | 0.00 | 0.10 | 0.10 | 86 | 1011.0 |
| 20260510175037 | 12 | 288 | 6.4 | 16.1 | 0.00 | 0.10 | 0.10 | 86 | 1011.0 |
| 20260510174543 | 13 | 219 | 6.4 | 20.9 | 0.00 | 0.10 | 0.10 | 85 | 1011.3 |
| 20260510174037 | 13 | 220 | 3.2 | 20.9 | 0.00 | 0.10 | 0.10 | 84 | 1011.3 |
| 20260510173601 | 13 | 0 | 4.8 | 20.9 | 0.00 | 0.10 | 0.10 | 83 | 1011.3 |
| 20260510173041 | 13 | 229 | 4.8 | 16.1 | 0.00 | 0.10 | 0.10 | 85 | 1011.5 |
| 20260510172536 | 13 | 146 | 3.2 | 16.1 | 0.00 | 0.10 | 0.10 | 86 | 1011.4 |
| 20260510172039 | 13 | 0 | 4.8 | 11.3 | 0.00 | 0.10 | 0.10 | 87 | 1011.4 |
| 20260510171548 | 13 | 234 | 3.2 | 16.1 | 0.00 | 0.10 | 0.10 | 87 | 1011.6 |
| 20260510171036 | 13 | 214 | 3.2 | 16.1 | 0.00 | 0.10 | 0.10 | 88 | 1011.6 |
| 20260510170536 | 12 | 262 | 4.8 | 16.1 | 0.00 | 0.10 | 0.10 | 88 | 1011.6 |
| 20260510170050 | 12 | 200 | 1.6 | 19.3 | 0.00 | 0.10 | 0.10 | 88 | 1011.5 |
| 20260510165536 | 12 | 0 | 3.2 | 19.3 | 0.00 | 0.10 | 0.10 | 87 | 1011.4 |
| 20260510165037 | 12 | 223 | 6.4 | 19.3 | 0.00 | 0.10 | 0.10 | 88 | 1011.4 |
| 20260510164552 | 12 | 0 | 3.2 | 16.1 | 0.00 | 0.10 | 0.10 | 87 | 1011.5 |
| 20260510164036 | 12 | 208 | 3.2 | 16.1 | 0.00 | 0.10 | 0.10 | 88 | 1011.4 |
| 20260510163536 | 13 | 128 | 4.8 | 16.1 | 0.00 | 0.10 | 0.10 | 89 | 1011.4 |
| 20260510163044 | 12 | 142 | 3.2 | 11.3 | 0.00 | 0.10 | 0.10 | 91 | 1011.4 |
| 20260510162536 | 12 | 185 | 1.6 | 14.5 | 0.03 | 0.10 | 0.10 | 91 | 1011.4 |
| 20260510162036 | 11 | 0 | 1.6 | 14.5 | 0.05 | 0.10 | 0.10 | 90 | 1011.4 |
| 20260510161547 | 11 | 0 | 3.2 | 17.7 | 0.08 | 0.10 | 0.10 | 90 | 1011.3 |
| 20260510161037 | 11 | 156 | 3.2 | 17.7 | 0.08 | 0.10 | 0.10 | 91 | 1011.5 |
| 20260510160537 | 12 | 233 | 3.2 | 16.1 | 0.08 | 0.10 | 0.10 | 91 | 1011.5 |
| 20260510160042 | 12 | 124 | 3.2 | 16.1 | 0.08 | 0.10 | 0.10 | 92 | 1011.5 |
| 20260510155536 | 12 | 128 | 1.6 | 14.5 | 0.08 | 0.10 | 0.10 | 92 | 1011.5 |
| 20260510155036 | 11 | 272 | 3.2 | 14.5 | 0.08 | 0.10 | 0.10 | 92 | 1011.5 |
| 20260510154552 | 11 | 261 | 3.2 | 12.9 | 0.08 | 0.10 | 0.10 | 91 | 1011.4 |
| 20260510154041 | 11 | 183 | 3.2 | 9.7 | 0.08 | 0.10 | 0.10 | 91 | 1011.4 |
| 20260510153536 | 11 | 160 | 1.6 | 11.3 | 0.10 | 0.10 | 0.10 | 91 | 1011.4 |
| 20260510153045 | 11 | 162 | 1.6 | 11.3 | 0.10 | 0.10 | 0.10 | 89 | 1011.7 |
| 20260510152536 | 11 | 144 | 0.0 | 11.3 | 0.08 | 0.08 | 0.08 | 88 | 1011.8 |
| 20260510152037 | 12 | 153 | 1.6 | 11.3 | 0.05 | 0.05 | 0.05 | 85 | 1011.7 |
| 20260510151553 | 12 | 237 | 1.6 | 8.0 | 0.03 | 0.03 | 0.03 | 83 | 1011.6 |
| 20260510151036 | 12 | 0 | 1.6 | 8.0 | 0.03 | 0.03 | 0.03 | 84 | 1011.3 |
| 20260510150536 | 12 | 222 | 3.2 | 8.0 | 0.03 | 0.03 | 0.03 | 83 | 1011.3 |
| 20260510150047 | 12 | 0 | 1.6 | 14.5 | 0.03 | 0.03 | 0.03 | 82 | 1011.2 |
| 20260510145538 | 13 | 148 | 1.6 | 14.5 | 0.03 | 0.03 | 0.03 | 82 | 1011.3 |
| 20260510145035 | 13 | 169 | 1.6 | 8.0 | 0.03 | 0.03 | 0.03 | 82 | 1011.3 |
| 20260510144601 | 12 | 152 | 3.2 | 8.0 | 0.03 | 0.03 | 0.03 | 84 | 1011.2 |
| 20260510144036 | 12 | 0 | 1.6 | 17.7 | 0.03 | 0.03 | 0.03 | 84 | 1011.3 |
| 20260510143537 | 12 | 0 | 0.0 | 20.9 | 0.00 | 0.00 | 0.00 | 83 | 1011.4 |
| 20260510143056 | 12 | 137 | 4.8 | 20.9 | 0.00 | 0.00 | 0.00 | 83 | 1011.4 |
| 20260510142536 | 12 | 355 | 0.0 | 6.4 | 0.00 | 0.00 | 0.00 | 86 | 1011.3 |
| 20260510142039 | 11 | 0 | 1.6 | 9.7 | 0.00 | 0.00 | 0.00 | 85 | 1011.3 |
| 20260510141548 | 11 | 274 | 1.6 | 9.7 | 0.00 | 0.00 | 0.00 | 86 | 1011.3 |
| 20260510141036 | 11 | 0 | 1.6 | 6.4 | 0.00 | 0.00 | 0.00 | 86 | 1011.4 |
| 20260510140536 | 11 | 88 | 1.6 | 9.7 | 0.00 | 0.00 | 0.00 | 85 | 1011.3 |
| 20260510140049 | 11 | 0 | 3.2 | 9.7 | 0.00 | 0.00 | 0.00 | 85 | 1011.3 |
| 20260510135536 | 11 | 207 | 0.0 | 12.9 | 0.00 | 0.00 | 0.00 | 85 | 1011.3 |
| 20260510135036 | 11 | 0 | 3.2 | 12.9 | 0.00 | 0.00 | 0.00 | 84 | 1011.4 |
| 20260510134547 | 12 | 199 | 3.2 | 11.3 | 0.00 | 0.00 | 0.00 | 83 | 1011.2 |
| 20260510134036 | 12 | 155 | 1.6 | 8.0 | 0.00 | 0.00 | 0.00 | 84 | 1011.2 |
| 20260510133536 | 12 | 152 | 3.2 | 8.0 | 0.00 | 0.00 | 0.00 | 83 | 1011.1 |
| 20260510133048 | 12 | 195 | 3.2 | 8.0 | 0.00 | 0.00 | 0.00 | 83 | 1010.9 |
| 20260510132536 | 12 | 157 | 1.6 | 16.1 | 0.00 | 0.00 | 0.00 | 84 | 1010.8 |
| 20260510132038 | 12 | 340 | 3.2 | 17.7 | 0.00 | 0.00 | 0.00 | 84 | 1011.0 |
| 20260510131550 | 12 | 140 | 6.4 | 17.7 | 0.00 | 0.00 | 0.00 | 84 | 1011.2 |
| 20260510131039 | 12 | 265 | 3.2 | 17.7 | 0.00 | 0.00 | 0.00 | 83 | 1011.2 |
| 20260510130536 | 12 | 0 | 4.8 | 17.7 | 0.00 | 0.00 | 0.00 | 86 | 1011.3 |
| 20260510130048 | 12 | 159 | 3.2 | 12.9 | 0.00 | 0.00 | 0.00 | 84 | 1011.5 |
| 20260510125539 | 12 | 107 | 3.2 | 12.9 | 0.00 | 0.00 | 0.00 | 85 | 1011.2 |
| 20260510125036 | 11 | 143 | 1.6 | 11.3 | 0.00 | 0.00 | 0.00 | 87 | 1011.2 |
| 20260510124545 | 11 | 165 | 3.2 | 9.7 | 0.00 | 0.00 | 0.00 | 87 | 1011.2 |
| 20260510124037 | 10 | 0 | 0.0 | 9.7 | 0.00 | 0.00 | 0.00 | 89 | 1011.1 |
| 20260510123537 | 10 | 131 | 3.2 | 12.9 | 0.00 | 0.00 | 0.00 | 88 | 1011.2 |
| 20260510123051 | 10 | 165 | 0.0 | 12.9 | 0.00 | 0.00 | 0.00 | 88 | 1011.1 |
| 20260510122536 | 10 | 149 | 3.2 | 11.3 | 0.00 | 0.00 | 0.00 | 87 | 1011.1 |
| 20260510122036 | 10 | 157 | 3.2 | 14.5 | 0.00 | 0.00 | 0.00 | 88 | 1010.9 |
| 20260510121544 | 10 | 78 | 0.0 | 14.5 | 0.00 | 0.00 | 0.00 | 89 | 1011.0 |
| 20260510121036 | 10 | 117 | 1.6 | 16.1 | 0.00 | 0.00 | 0.00 | 89 | 1011.1 |
| 20260510120535 | 10 | 151 | 4.8 | 16.1 | 0.00 | 0.00 | 0.00 | 89 | 1011.1 |
| 20260510120046 | 10 | 247 | 3.2 | 12.9 | 0.00 | 0.00 | 0.00 | 90 | 1011.2 |
| 20260510115536 | 9 | 190 | 1.6 | 12.9 | 0.00 | 0.00 | 0.00 | 91 | 1011.1 |
| 20260510115036 | 9 | 132 | 1.6 | 11.3 | 0.00 | 0.00 | 0.00 | 91 | 1011.2 |
| 20260510114547 | 9 | 200 | 3.2 | 16.1 | 0.00 | 0.00 | 0.00 | 91 | 1011.2 |
| 20260510114035 | 9 | 0 | 1.6 | 16.1 | 0.00 | 0.00 | 0.00 | 91 | 1010.9 |
| 20260510113537 | 9 | 152 | 4.8 | 16.1 | 0.00 | 0.00 | 0.00 | 91 | 1011.0 |
| 20260510113053 | 9 | 0 | 1.6 | 14.5 | 0.00 | 0.00 | 0.00 | 91 | 1010.9 |
| 20260510112537 | 9 | 0 | 3.2 | 14.5 | 0.00 | 0.00 | 0.00 | 91 | 1010.8 |
| 20260510112037 | 9 | 186 | 1.6 | 14.5 | 0.00 | 0.00 | 0.00 | 91 | 1010.9 |
| 20260510111548 | 9 | 188 | 1.6 | 14.5 | 0.00 | 0.00 | 0.00 | 91 | 1010.7 |
| 20260510111037 | 8 | 254 | 0.0 | 12.9 | 0.00 | 0.00 | 0.00 | 91 | 1010.4 |
| 20260510110539 | 8 | 259 | 1.6 | 14.5 | 0.00 | 0.00 | 0.00 | 92 | 1010.3 |
| 20260510110051 | 8 | 0 | 3.2 | 14.5 | 0.00 | 0.00 | 0.00 | 92 | 1010.2 |
| 20260510105536 | 8 | 142 | 3.2 | 11.3 | 0.00 | 0.00 | 0.00 | 92 | 1010.2 |
| 20260510105036 | 8 | 0 | 1.6 | 9.7 | 0.00 | 0.00 | 0.00 | 92 | 1010.4 |
| 20260510104544 | 8 | 0 | 3.2 | 9.7 | 0.00 | 0.00 | 0.00 | 92 | 1010.5 |
| 20260510104038 | 8 | 183 | 1.6 | 11.3 | 0.00 | 0.00 | 0.00 | 92 | 1010.6 |
| 20260510103537 | 8 | 0 | 1.6 | 11.3 | 0.00 | 0.00 | 0.00 | 92 | 1010.6 |
| 20260510103052 | 8 | 176 | 1.6 | 11.3 | 0.00 | 0.00 | 0.00 | 92 | 1010.6 |
| 20260510102536 | 8 | 0 | 0.0 | 8.0 | 0.00 | 0.00 | 0.00 | 92 | 1010.4 |
| 20260510102035 | 8 | 159 | 1.6 | 12.9 | 0.00 | 0.00 | 0.00 | 92 | 1010.2 |
| 20260510101555 | 8 | 149 | 1.6 | 12.9 | 0.00 | 0.00 | 0.00 | 92 | 1010.2 |
| 20260510101035 | 8 | 0 | 1.6 | 16.1 | 0.00 | 0.00 | 0.00 | 92 | 1010.1 |
| 20260510100535 | 8 | 0 | 4.8 | 16.1 | 0.00 | 0.00 | 0.00 | 93 | 1010.0 |
| 20260510100055 | 8 | 155 | 0.0 | 9.7 | 0.00 | 0.00 | 0.00 | 93 | 1009.9 |
| 20260510095535 | 8 | 162 | 1.6 | 9.7 | 0.00 | 0.00 | 0.00 | 93 | 1009.8 |
| 20260510095036 | 7 | 112 | 0.0 | 9.7 | 0.00 | 0.00 | 0.00 | 93 | 1009.7 |
| 20260510094553 | 7 | 145 | 1.6 | 8.0 | 0.00 | 0.00 | 0.00 | 93 | 1009.8 |
| 20260510094035 | 7 | 169 | 0.0 | 6.4 | 0.00 | 0.00 | 0.00 | 93 | 1009.8 |
| 20260510093536 | 7 | 0 | 0.0 | 6.4 | 0.00 | 0.00 | 0.00 | 93 | 1009.9 |
| 20260510093047 | 7 | 0 | 0.0 | 6.4 | 0.00 | 0.00 | 0.00 | 93 | 1009.7 |
| 20260510092536 | 7 | 241 | 0.0 | 4.8 | 0.00 | 0.00 | 0.00 | 93 | 1009.6 |
| 20260510092037 | 7 | 0 | 0.0 | 6.4 | 0.00 | 0.00 | 0.00 | 93 | 1009.6 |
| 20260510091549 | 7 | 0 | 1.6 | 6.4 | 0.00 | 0.00 | 0.00 | 93 | 1009.5 |
| 20260510091036 | 7 | 0 | 0.0 | 1.6 | 0.00 | 0.00 | 0.00 | 93 | 1009.6 |
| 20260510090536 | 7 | 0 | 0.0 | 4.8 | 0.00 | 0.00 | 0.00 | 93 | 1009.8 |
| 20260510090043 | 7 | 0 | 0.0 | 8.0 | 0.00 | 0.00 | 0.00 | 93 | 1009.7 |
| 20260510085538 | 7 | 0 | 0.0 | 8.0 | 0.00 | 0.00 | 0.00 | 92 | 1009.6 |
| 20260510085035 | 7 | 0 | 0.0 | 3.2 | 0.00 | 0.00 | 0.00 | 92 | 1009.8 |
| 20260510084549 | 7 | 0 | 0.0 | 4.8 | 0.00 | 0.00 | 0.00 | 92 | 1009.8 |
| 20260510084036 | 7 | 0 | 0.0 | 8.0 | 0.00 | 0.00 | 0.00 | 92 | 1009.8 |
| 20260510083536 | 7 | 0 | 0.0 | 8.0 | 0.00 | 0.00 | 0.00 | 91 | 1010.0 |
| 20260510083051 | 7 | 0 | 0.0 | 8.0 | 0.00 | 0.00 | 0.00 | 91 | 1010.0 |
| 20260510082535 | 7 | 0 | 0.0 | 6.4 | 0.00 | 0.00 | 0.00 | 91 | 1010.0 |
| 20260510082037 | 7 | 0 | 0.0 | 8.0 | 0.00 | 0.00 | 0.00 | 91 | 1009.9 |
| 20260510081551 | 7 | 201 | 0.0 | 8.0 | 0.00 | 0.00 | 0.00 | 91 | 1010.0 |
| 20260510081039 | 7 | 0 | 0.0 | 11.3 | 0.00 | 0.00 | 0.00 | 91 | 1009.9 |
| 20260510080536 | 7 | 144 | 1.6 | 11.3 | 0.00 | 0.00 | 0.00 | 91 | 1009.7 |
| 20260510080054 | 7 | 132 | 1.6 | 11.3 | 0.00 | 0.00 | 0.00 | 91 | 1009.7 |
| 20260510075538 | 7 | 106 | 1.6 | 9.7 | 0.00 | 0.00 | 0.00 | 91 | 1009.7 |
| 20260510075036 | 7 | 180 | 1.6 | 9.7 | 0.00 | 0.00 | 0.00 | 91 | 1009.8 |
| 20260510074550 | 7 | 0 | 1.6 | 11.3 | 0.00 | 0.00 | 0.00 | 91 | 1009.9 |
| 20260510074037 | 7 | 0 | 3.2 | 11.3 | 0.00 | 0.00 | 0.00 | 91 | 1010.0 |
| 20260510073536 | 7 | 107 | 1.6 | 9.7 | 0.00 | 0.00 | 0.00 | 91 | 1010.1 |
| 20260510073103 | 7 | 0 | 0.0 | 14.5 | 0.00 | 0.00 | 0.00 | 91 | 1010.1 |
| 20260510072536 | 7 | 0 | 1.6 | 14.5 | 0.00 | 0.00 | 0.00 | 91 | 1010.0 |
| 20260510072036 | 7 | 188 | 3.2 | 14.5 | 0.00 | 0.00 | 0.00 | 91 | 1010.0 |
| 20260510071543 | 7 | 0 | 1.6 | 14.5 | 0.00 | 0.00 | 0.00 | 91 | 1010.0 |
| 20260510071037 | 7 | 0 | 1.6 | 14.5 | 0.00 | 0.00 | 0.00 | 91 | 1010.1 |
| 20260510070535 | 7 | 111 | 3.2 | 14.5 | 0.00 | 0.00 | 0.00 | 91 | 1010.1 |
| 20260510070043 | 7 | 173 | 1.6 | 16.1 | 0.00 | 0.00 | 0.00 | 91 | 1010.0 |
| 20260510065536 | 7 | 171 | 1.6 | 16.1 | 0.00 | 0.00 | 0.00 | 91 | 1010.0 |
| 20260510065036 | 7 | 154 | 3.2 | 17.7 | 0.00 | 0.00 | 0.00 | 91 | 1010.0 |
| 20260510064611 | 7 | 155 | 3.2 | 17.7 | 0.00 | 0.00 | 0.00 | 91 | 1010.0 |
| 20260510064036 | 7 | 288 | 1.6 | 11.3 | 0.00 | 0.00 | 0.00 | 91 | 1010.1 |
| 20260510063536 | 7 | 215 | 1.6 | 11.3 | 0.00 | 0.00 | 0.00 | 91 | 1010.0 |
| 20260510063045 | 7 | 252 | 1.6 | 11.3 | 0.00 | 0.00 | 0.00 | 91 | 1010.0 |
| 20260510062535 | 7 | 0 | 0.0 | 9.7 | 0.00 | 0.00 | 0.00 | 91 | 1010.1 |
| 20260510062036 | 7 | 0 | 0.0 | 9.7 | 0.00 | 0.00 | 0.00 | 91 | 1010.1 |
| 20260510061547 | 7 | 228 | 0.0 | 11.3 | 0.00 | 0.00 | 0.00 | 91 | 1010.1 |
| 20260510061038 | 7 | 0 | 1.6 | 11.3 | 0.00 | 0.00 | 0.00 | 91 | 1010.1 |
| 20260510060539 | 7 | 255 | 3.2 | 11.3 | 0.00 | 0.00 | 0.00 | 91 | 1010.1 |
| 20260510060050 | 7 | 267 | 0.0 | 12.9 | 0.00 | 0.00 | 0.00 | 91 | 1010.1 |
| 20260510055540 | 7 | 89 | 3.2 | 12.9 | 0.00 | 0.00 | 0.00 | 91 | 1010.0 |
| 20260510055039 | 7 | 0 | 1.6 | 12.9 | 0.00 | 0.00 | 0.00 | 91 | 1010.1 |
| 20260510054547 | 7 | 157 | 1.6 | 11.3 | 0.00 | 0.00 | 0.00 | 91 | 1010.2 |
| 20260510054035 | 7 | 194 | 0.0 | 9.7 | 0.00 | 0.00 | 0.00 | 91 | 1010.3 |
| 20260510053536 | 7 | 157 | 0.0 | 14.5 | 0.00 | 0.00 | 0.00 | 91 | 1010.3 |
| 20260510053048 | 7 | 0 | 0.0 | 14.5 | 0.00 | 0.00 | 0.00 | 90 | 1010.3 |
| 20260510052540 | 7 | 136 | 3.2 | 11.3 | 0.00 | 0.00 | 0.00 | 90 | 1010.3 |
| 20260510052037 | 7 | 197 | 1.6 | 11.3 | 0.00 | 0.00 | 0.00 | 90 | 1010.5 |
| 20260510051553 | 7 | 178 | 1.6 | 11.3 | 0.00 | 0.00 | 0.00 | 90 | 1010.6 |
| 20260510051038 | 7 | 0 | 3.2 | 11.3 | 0.00 | 0.00 | 0.00 | 90 | 1010.5 |
| 20260510050535 | 7 | 228 | 0.0 | 14.5 | 0.00 | 0.00 | 0.00 | 90 | 1010.5 |
| 20260510050047 | 7 | 223 | 3.2 | 14.5 | 0.00 | 0.00 | 0.00 | 90 | 1010.4 |
| 20260510045539 | 7 | 143 | 1.6 | 9.7 | 0.00 | 0.00 | 0.00 | 89 | 1010.4 |
| 20260510045035 | 7 | 243 | 1.6 | 11.3 | 0.00 | 0.00 | 0.00 | 89 | 1010.3 |
| 20260510044544 | 7 | 153 | 1.6 | 12.9 | 0.00 | 0.00 | 0.00 | 89 | 1010.2 |
| 20260510044036 | 7 | 0 | 1.6 | 12.9 | 0.00 | 0.00 | 0.00 | 89 | 1010.1 |
| 20260510043535 | 7 | 88 | 3.2 | 12.9 | 0.00 | 0.00 | 0.00 | 89 | 1010.1 |
| 20260510043044 | 7 | 155 | 1.6 | 11.3 | 0.00 | 0.00 | 0.00 | 89 | 1010.2 |
| 20260510042539 | 7 | 0 | 1.6 | 11.3 | 0.00 | 0.00 | 0.00 | 89 | 1010.2 |
| 20260510042036 | 7 | 118 | 0.0 | 16.1 | 0.00 | 0.00 | 0.00 | 89 | 1010.3 |
| 20260510041543 | 7 | 0 | 4.8 | 17.7 | 0.00 | 0.00 | 0.00 | 89 | 1010.4 |
| 20260510041036 | 7 | 175 | 6.4 | 17.7 | 0.00 | 0.00 | 0.00 | 89 | 1010.7 |
| 20260510040536 | 7 | 5 | 3.2 | 12.9 | 0.00 | 0.00 | 0.00 | 89 | 1010.7 |
| 20260510040050 | 7 | 127 | 0.0 | 12.9 | 0.00 | 0.00 | 0.00 | 89 | 1010.7 |
| 20260510035535 | 7 | 132 | 4.8 | 12.9 | 0.00 | 0.00 | 0.00 | 88 | 1010.6 |
| 20260510035039 | 7 | 0 | 0.0 | 12.9 | 0.00 | 0.00 | 0.00 | 88 | 1010.5 |
| 20260510034606 | 7 | 0 | 3.2 | 12.9 | 0.00 | 0.00 | 0.00 | 88 | 1010.3 |
| 20260510034036 | 7 | 176 | 1.6 | 11.3 | 0.00 | 0.00 | 0.00 | 88 | 1010.3 |
| 20260510033538 | 7 | 136 | 3.2 | 11.3 | 0.00 | 0.00 | 0.00 | 88 | 1010.6 |
| 20260510033056 | 7 | 94 | 3.2 | 12.9 | 0.00 | 0.00 | 0.00 | 88 | 1010.7 |
| 20260510032536 | 7 | 135 | 0.0 | 14.5 | 0.00 | 0.00 | 0.00 | 88 | 1010.7 |
| 20260510032035 | 7 | 171 | 3.2 | 14.5 | 0.00 | 0.00 | 0.00 | 88 | 1010.7 |
| 20260510031544 | 7 | 0 | 1.6 | 8.0 | 0.00 | 0.00 | 0.00 | 88 | 1010.8 |
| 20260510031036 | 7 | 0 | 0.0 | 14.5 | 0.00 | 0.00 | 0.00 | 88 | 1010.7 |
| 20260510030536 | 7 | 123 | 3.2 | 14.5 | 0.00 | 0.00 | 0.00 | 88 | 1010.7 |
| 20260510030046 | 7 | 123 | 0.0 | 14.5 | 0.00 | 0.00 | 0.00 | 88 | 1010.7 |
| 20260510025536 | 7 | 139 | 1.6 | 9.7 | 0.00 | 0.00 | 0.00 | 88 | 1010.7 |
| 20260510025036 | 7 | 0 | 0.0 | 8.0 | 0.00 | 0.00 | 0.00 | 87 | 1010.7 |
| 20260510024545 | 7 | 0 | 1.6 | 8.0 | 0.00 | 0.00 | 0.00 | 87 | 1010.7 |
| 20260510024038 | 7 | 0 | 0.0 | 11.3 | 0.00 | 0.00 | 0.00 | 87 | 1010.8 |
| 20260510023535 | 7 | 0 | 1.6 | 11.3 | 0.00 | 0.00 | 0.00 | 87 | 1010.8 |
| 20260510023045 | 7 | 157 | 0.0 | 11.3 | 0.00 | 0.00 | 0.00 | 87 | 1010.8 |
| 20260510022536 | 7 | 242 | 1.6 | 11.3 | 0.00 | 0.00 | 0.00 | 87 | 1010.8 |
| 20260510022036 | 7 | 0 | 0.0 | 6.4 | 0.00 | 0.00 | 0.00 | 87 | 1010.9 |
| 20260510021555 | 7 | 0 | 0.0 | 6.4 | 0.00 | 0.00 | 0.00 | 87 | 1010.8 |
| 20260510021035 | 7 | 310 | 1.6 | 6.4 | 0.00 | 0.00 | 0.00 | 87 | 1010.9 |
| 20260510020535 | 7 | 0 | 0.0 | 8.0 | 0.00 | 0.00 | 0.00 | 87 | 1010.7 |
| 20260510020048 | 7 | 0 | 0.0 | 8.0 | 0.00 | 0.00 | 0.00 | 87 | 1010.8 |
| 20260510015536 | 7 | 131 | 1.6 | 11.3 | 0.00 | 0.00 | 0.00 | 87 | 1010.9 |
| 20260510015035 | 7 | 0 | 1.6 | 11.3 | 0.00 | 0.00 | 0.00 | 87 | 1010.9 |
| 20260510014553 | 7 | 149 | 1.6 | 9.7 | 0.00 | 0.00 | 0.00 | 87 | 1010.9 |
| 20260510014035 | 7 | 0 | 1.6 | 8.0 | 0.00 | 0.00 | 0.00 | 87 | 1011.1 |
| 20260510013536 | 7 | 0 | 0.0 | 6.4 | 0.00 | 0.00 | 0.00 | 87 | 1011.2 |
| 20260510013058 | 7 | 236 | 0.0 | 6.4 | 0.00 | 0.00 | 0.00 | 87 | 1011.2 |
| 20260510012538 | 7 | 0 | 0.0 | 9.7 | 0.00 | 0.00 | 0.00 | 87 | 1011.3 |
| 20260510012036 | 7 | 193 | 0.0 | 9.7 | 0.00 | 0.00 | 0.00 | 87 | 1011.3 |
| 20260510011546 | 7 | 169 | 1.6 | 8.0 | 0.00 | 0.00 | 0.00 | 87 | 1011.3 |
| 20260510011036 | 7 | 0 | 0.0 | 11.3 | 0.00 | 0.00 | 0.00 | 87 | 1011.2 |
| 20260510010535 | 7 | 0 | 0.0 | 11.3 | 0.00 | 0.00 | 0.00 | 87 | 1011.2 |
| 20260510010047 | 7 | 153 | 1.6 | 11.3 | 0.00 | 0.00 | 0.00 | 86 | 1011.2 |
| 20260510005536 | 7 | 0 | 0.0 | 6.4 | 0.00 | 0.00 | 0.00 | 86 | 1011.1 |
| 20260510005036 | 7 | 228 | 0.0 | 6.4 | 0.00 | 0.00 | 0.00 | 86 | 1011.1 |
| 20260510004546 | 7 | 252 | 0.0 | 8.0 | 0.00 | 0.00 | 0.00 | 86 | 1011.0 |
| 20260510004035 | 7 | 0 | 0.0 | 11.3 | 0.00 | 0.00 | 0.00 | 86 | 1010.9 |
| 20260510003535 | 7 | 148 | 1.6 | 11.3 | 0.00 | 0.00 | 0.00 | 86 | 1010.9 |
| 20260510003101 | 7 | 142 | 0.0 | 11.3 | 0.00 | 0.00 | 0.00 | 86 | 1011.0 |
| 20260510002536 | 7 | 0 | 3.2 | 11.3 | 0.00 | 0.00 | 0.00 | 86 | 1011.0 |
| 20260510002035 | 7 | 161 | 0.0 | 11.3 | 0.00 | 0.00 | 0.00 | 86 | 1010.9 |
| 20260510001544 | 7 | 244 | 1.6 | 11.3 | 0.00 | 0.00 | 0.00 | 86 | 1010.8 |
| 20260510001038 | 7 | 0 | 3.2 | 11.3 | 0.00 | 0.00 | 0.00 | 85 | 1010.8 |
| 20260510000537 | 7 | 204 | 1.6 | 11.3 | 0.00 | 0.00 | 0.00 | 85 | 1010.8 |
| 20260510000059 | 7 | 160 | 1.6 | 9.7 | 0.00 | 0.00 | 0.00 | 85 | 1010.8 |
| 20260509235536 | 7 | 153 | 0.0 | 6.4 | 0.00 | 0.00 | 0.00 | 85 | 1010.7 |
| 20260509235036 | 7 | 168 | 1.6 | 6.4 | 0.00 | 0.00 | 0.00 | 85 | 1010.7 |
| 20260509234547 | 7 | 150 | 0.0 | 3.2 | 0.00 | 0.00 | 0.00 | 85 | 1010.7 |
| 20260509234036 | 7 | 0 | 0.0 | 4.8 | 0.00 | 0.00 | 0.00 | 85 | 1010.8 |
| 20260509233536 | 7 | 0 | 0.0 | 4.8 | 0.00 | 0.00 | 0.00 | 85 | 1010.8 |
| 20260509233047 | 7 | 0 | 0.0 | 4.8 | 0.00 | 0.00 | 0.00 | 84 | 1010.8 |
| 20260509232535 | 7 | 0 | 0.0 | 4.8 | 0.00 | 0.00 | 0.00 | 84 | 1010.8 |
| 20260509232037 | 7 | 0 | 0.0 | 4.8 | 0.00 | 0.00 | 0.00 | 84 | 1010.8 |
| 20260509231545 | 7 | 0 | 0.0 | 4.8 | 0.00 | 0.00 | 0.00 | 84 | 1010.8 |
| 20260509231035 | 7 | 0 | 0.0 | 6.4 | 0.00 | 0.00 | 0.00 | 83 | 1010.8 |
| 20260509230535 | 7 | 0 | 0.0 | 6.4 | 0.00 | 0.00 | 0.00 | 83 | 1010.7 |
| 20260509230046 | 7 | 0 | 0.0 | 4.8 | 0.00 | 0.00 | 0.00 | 83 | 1010.8 |
| 20260509225535 | 7 | 0 | 1.6 | 4.8 | 0.00 | 0.00 | 0.00 | 83 | 1010.8 |
| 20260509225035 | 8 | 0 | 0.0 | 8.0 | 0.00 | 0.00 | 0.00 | 83 | 1010.8 |
| 20260509224543 | 8 | 0 | 0.0 | 8.0 | 0.00 | 0.00 | 0.00 | 83 | 1010.9 |
| 20260509224035 | 8 | 194 | 0.0 | 4.8 | 0.00 | 0.00 | 0.00 | 82 | 1010.9 |
| 20260509223535 | 8 | 0 | 0.0 | 4.8 | 0.00 | 0.00 | 0.00 | 82 | 1010.9 |
| 20260509223046 | 8 | 0 | 0.0 | 4.8 | 0.00 | 0.00 | 0.00 | 81 | 1011.0 |
| 20260509222534 | 8 | 0 | 0.0 | 4.8 | 0.00 | 0.00 | 0.00 | 81 | 1010.9 |
| 20260509222037 | 8 | 255 | 0.0 | 3.2 | 0.00 | 0.00 | 0.00 | 81 | 1011.0 |
| 20260509221546 | 8 | 0 | 0.0 | 3.2 | 0.00 | 0.00 | 0.00 | 81 | 1011.0 |
| 20260509221035 | 8 | 0 | 0.0 | 0.0 | 0.00 | 0.00 | 0.00 | 80 | 1011.0 |
| 20260509220536 | 8 | 0 | 0.0 | 3.2 | 0.00 | 0.00 | 0.00 | 79 | 1011.0 |
| 20260509220048 | 8 | 0 | 0.0 | 8.0 | 0.00 | 0.00 | 0.00 | 78 | 1011.0 |
| 20260509215536 | 8 | 0 | 0.0 | 8.0 | 0.00 | 0.00 | 0.00 | 78 | 1011.0 |
| 20260509215037 | 8 | 0 | 1.6 | 9.7 | 0.00 | 0.00 | 0.00 | 78 | 1011.1 |
| 20260509214558 | 8 | 0 | 1.6 | 9.7 | 0.00 | 0.00 | 0.00 | 77 | 1011.2 |
| 20260509214035 | 8 | 121 | 0.0 | 9.7 | 0.00 | 0.00 | 0.00 | 77 | 1011.3 |
| 20260509213535 | 8 | 0 | 1.6 | 8.0 | 0.00 | 0.00 | 0.00 | 77 | 1011.3 |
| 20260509213045 | 8 | 0 | 0.0 | 12.9 | 0.00 | 0.00 | 0.00 | 77 | 1011.3 |
| 20260509212538 | 8 | 211 | 0.0 | 12.9 | 0.00 | 0.00 | 0.00 | 77 | 1011.3 |
| 20260509212035 | 8 | 126 | 3.2 | 12.9 | 0.00 | 0.00 | 0.00 | 77 | 1011.4 |
| 20260509211548 | 8 | 102 | 0.0 | 4.8 | 0.00 | 0.00 | 0.00 | 77 | 1011.3 |
| 20260509211035 | 8 | 91 | 0.0 | 4.8 | 0.00 | 0.00 | 0.00 | 77 | 1011.4 |
| 20260509210535 | 8 | 0 | 0.0 | 8.0 | 0.00 | 0.00 | 0.00 | 77 | 1011.3 |
| 20260509210048 | 8 | 134 | 1.6 | 8.0 | 0.00 | 0.00 | 0.00 | 78 | 1011.3 |
| 20260509205534 | 8 | 0 | 0.0 | 9.7 | 0.00 | 0.00 | 0.00 | 78 | 1011.4 |